Weather Roundup
Issued by NWS

Home | Current Version | Previous Version | Graphics & Text | Print | Product List | Glossary Off
Versions: 1 2 3 4 5 6 7 8 9 10 11 12 13 14 15 16 17 18 19 20 21 22 23 24 25 26 27 28 29 30 31 32 33 34 35 36 37 38 39 40 41 42 43 44 45 46 47 48 49 50

000
NZUS93 KARX 302310
HRRWXR

CURRENT HOURLY OBSERVATIONS ACROSS
MUCH OF THE UPPER MISSISSIPPI VALLEY
NATIONAL WEATHER SERVICE LA CROSSE WI
600 PM CDT WED JUL 30 2014


...SOUTHEAST MINNESOTA...


CITY           SKY/WX    TMP DP  RH WIND       PRES   REMARKS
ROCHESTER      PTSUNNY   77  57  50 NW6       30.07S
ROCHESTER/MAYO FAIR      76  53  44 NW7       30.06S
WINONA         SUNNY     79  59  50 W3        30.03S
AUSTIN         MOSUNNY   77  55  47 W10       30.06S
ALBERT LEA     SUNNY     77  57  50 NW6       30.07S
DODGE CENTER   SUNNY     77  57  50 NW10      30.06F
PRESTON        SUNNY     74  64  69 NW5       30.07S
OWATONNA       MOSUNNY   79  54  41 W10       30.06F
FARIBAULT      SUNNY     79  52  38 W6        30.06S
$$

...ELSEWHERE IN MINNESOTA...


CITY           SKY/WX    TMP DP  RH WIND       PRES   REMARKS
MINNEAPOLIS    MOSUNNY   80  52  37 NW13      30.03F
INTNL FALLS    PTSUNNY   76  55  48 NW13G21   29.99S
DULUTH         MOSUNNY   77  57  50 NW14      29.98S
RED WING       SUNNY     79  55  44 NW7       30.01F
REDWOOD FALLS  MOSUNNY   78  54  43 VRB5      30.08F
MANKATO        PTSUNNY   75  55  50 W9        30.07S
WORTHINGTON    MOSUNNY   75  54  46 N5        30.13F
FAIRMONT       MOSUNNY   79  46  31 NW9       30.09S
$$

...SOUTHWEST WISCONSIN...


CITY           SKY/WX    TMP DP  RH WIND       PRES   REMARKS
LA CROSSE      SUNNY     79  57  46 NW6       30.02
PRAIRIE DU CHI SUNNY     78  53  41 N7        30.03F
BOSCOBEL       SUNNY     79  55  43 NW8       30.04S
LONE ROCK      SUNNY     80  51  36 N8        30.03S
PLATTEVILLE    SUNNY     75  51  42 NW10G17   30.05S
FORT MC COY    SUNNY     75  53  47 W5        30.04F
CAMP DOUGLAS   PTSUNNY   73  59  60 W8        30.03F
VIROQUA        FAIR      73  57  55 NW7       30.06S
WIS DELLS      SUNNY     74  47  37 NW7       30.03F
$$

...ELSEWHERE IN WISCONSIN...


CITY           SKY/WX    TMP DP  RH WIND       PRES   REMARKS
MILWAUKEE      MOSUNNY   69  53  56 SE5       30.01F
MADISON        MOSUNNY   76  51  41 NW7       30.02S
GREEN BAY      SUNNY     74  54  49 W7        29.98F
EAU CLAIRE     SUNNY     77  58  51 W6        30.00F
BLACK RVR FLS  FAIR      76  55  48 W5        30.02F
MEDFORD        MOSUNNY   69  56  63 W6        30.02F
WAUSAU         SUNNY     73  51  46 W13       29.99F
WIS RAPIDS     SUNNY     72  51  47 W7        30.03F
MARSHFIELD     MOSUNNY   71  55  56 W7        30.02F
RICE LAKE      TSTM      64  61  88 W5        30.06R
$$

...NORTHEAST IOWA...


CITY           SKY/WX    TMP DP  RH WIND       PRES   REMARKS
WATERLOO       CLOUDY    81  57  43 NW10      30.04F
DUBUQUE        SUNNY     75  57  53 NW12      30.05S
DECORAH        MOSUNNY   75  59  57 NW8       30.05S
MASON CITY     MOSUNNY   78  57  48 NW9       30.09S
CHARLES CITY   MOSUNNY   77  59  53 NW5       30.07S
OELWEIN        MOSUNNY   77  59  53 N5        30.06F
$$

...ELSEWHERE IN IOWA...


CITY           SKY/WX    TMP DP  RH WIND       PRES   REMARKS
DES MOINES     MOSUNNY   78  52  40 N6        30.07S
IOWA CITY      SUNNY     79  59  50 NW9       30.05F
FORT DODGE     SUNNY     77  55  47 NW3       30.09F
MARSHALLTOWN   SUNNY     79  58  48 N5        30.06F
CEDAR RAPIDS   SUNNY     78  58  49 NW8       30.04F
$$

...NORTHERN ILLINOIS...


CITY           SKY/WX    TMP DP  RH WIND       PRES   REMARKS
CHICAGO-OHARE  MOSUNNY   73  56  54 NE9       30.00F
DUPAGE         MOSUNNY   76  56  49 NW8       30.00F
CHICAGO-MIDWAY MOSUNNY   73  60  63 E7        30.01F
MOLINE         MOSUNNY   80  57  45 NW10      30.02F
ROCKFORD       MOSUNNY   79  55  43 NW8       30.02F
STERLING       SUNNY     79  59  50 NW8       30.02F
PEORIA         SUNNY     81  55  40 NW9       30.03F
$$

NOTE: "FAIR" INDICATES FEW OR NO CLOUDS BELOW 12,000 FEET WITH NO
SIGNIFICANT WEATHER AND/OR OBSTRUCTIONS TO VISIBILITY. WIND
SPEEDS ARE IN MILES-PER-HOUR.



USA.gov is the U.S. government's official web portal to all federal, state and local government web resources and services.